User: anonymous   Login
Location: Skalnate Pleso
(49.1889°N, 20.2450°E)
Time: 00:09:43
(UTC+01:00)
Language:

Iridium 45 - Orbit

View from above orbital plane
View from above orbital plane
View from above satellite
View from above satellite

Ground track
Ground track

The orbit data is extracted from the following two-line orbital elements,

1 25104U 97082A   17324.62245219 +.00000247 +00000-0 +81023-4 0  9997
2 25104 086.3998 221.8097 0002480 102.1269 258.0204 14.34219989042536
Epoch (UTC): 20 November 2017 14:56:19
Eccentricity: 0.0002480
inclination: 86.3998°
perigee height: 776 km
apogee height: 779 km
right ascension of ascending node: 221.8097°
argument of perigee: 102.1269°
revolutions per day: 14.34219989
mean anomaly at epoch: 258.0204°
orbit number at epoch: 4253

The dashed part of the orbit path shows where the satellite is in the earth's shadow,  

DLR